User: anonymous   Login
Location: Columbia
(38.9520°N, 92.3340°W)
Time: 07:38:23
(UTC-05:00)
Language:

Meteor 1-4 Rocket - Orbit

View from above orbital plane
View from above orbital plane
View from above satellite
View from above satellite

Ground track
Ground track

The orbit data is extracted from the following two-line orbital elements,

1 04394U 70037B   15108.51451889  .00007637  00000-0  30524-3 0  9993
2 04394 081.2465 220.9136 0043773 297.5009 062.1778 15.24067228444142
Epoch (UTC): 18 April 2015 12:20:54
Eccentricity: 0.0043773
inclination: 81.2465°
perigee height: 463 km
apogee height: 523 km
right ascension of ascending node: 220.9136°
argument of perigee: 297.5009°
revolutions per day: 15.24067228
mean anomaly at epoch: 62.1778°
orbit number at epoch: 44414

The dashed part of the orbit path shows where the satellite is in the earth's shadow,  

DLR